,,Stat5,,Stat1,,Stat2,,Stat3,,Stat4,,Wind1,,Wind1,
time,status,PA1M_AVG,status,PR1M_SUM,status,RH1M_AVG,status,SR1M_AVG,status,TA1M_AVG,status,W1dAve1m,status,W1sAve1m,
2001-07-07, 00:00:00,VALID,917.607,VALID,0,VALID,98.1933,VALID,-0.0509425,VALID,18.4987,VALID,87,VALID,0,
2001-07-07, 00:01:00,VALID,917.607,VALID,0,VALID,98.2976,VALID,-0.0679233,VALID,18.5022,VALID,90,VALID,0,
2001-07-07, 00:02:00,VALID,917.61,VALID,0,VALID,98.3688,VALID,-0.0169808,VALID,18.5116,VALID,90,VALID,0,
2001-07-07, 00:03:00,VALID,917.592,VALID,0,VALID,98.4845,VALID,-0.0169808,VALID,18.5079,VALID,84,VALID,0,
2001-07-07, 00:04:00,VALID,917.593,VALID,0,VALID,98.6015,VALID,-0.0509425,VALID,18.5278,VALID,85,VALID,0,
2001-07-07, 00:05:00,VALID,917.578,VALID,0,VALID,98.7375,VALID,-0.0169808,VALID,18.5499,VALID,93,VALID,0,
2001-07-07, 00:06:00,VALID,917.566,VALID,0,VALID,98.791,VALID,-0.101885,VALID,18.576,VALID,103,VALID,0,
2001-07-07, 00:07:00,VALID,917.535,VALID,0,VALID,98.8139,VALID,-0.0509425,VALID,18.5825,VALID,119,VALID,0.409071,
2001-07-07, 00:08:00,VALID,917.524,VALID,0,VALID,98.8749,VALID,-0.0169808,VALID,18.5951,VALID,114,VALID,0.84375,
2001-07-07, 00:09:00,VALID,917.513,VALID,0,VALID,98.7363,VALID,-0.0169808,VALID,18.5633,VALID,111,VALID,0.692274,
2001-07-07, 00:10:00,VALID,917.503,VALID,0,VALID,98.646,VALID,-0.101885,VALID,18.4955,VALID,107,VALID,0.621962,
2001-07-07, 00:11:00,VALID,917.493,VALID,0,VALID,98.866,VALID,-0.0509425,VALID,18.4853,VALID,103,VALID,0.972656,
2001-07-07, 00:12:00,VALID,917.482,VALID,0,VALID,98.8863,VALID,-0.0169808,VALID,18.4819,VALID,102,VALID,0.83355,
2001-07-07, 00:13:00,VALID,917.477,VALID,0,VALID,98.9156,VALID,-0.0509425,VALID,18.495,VALID,104,VALID,0.6125,
2001-07-07, 00:14:00,VALID,917.469,VALID,0,VALID,99.0148,VALID,-0.0339617,VALID,18.5239,VALID,107,VALID,0.621553,
2001-07-07, 00:15:00,VALID,917.47,VALID,0,VALID,99.0173,VALID,-0.0679233,VALID,18.5569,VALID,105,VALID,0.580592,
2001-07-07, 00:16:00,VALID,917.462,VALID,0,VALID,99.0084,VALID,-0.0509425,VALID,18.5338,VALID,101,VALID,0.692779,
2001-07-07, 00:17:00,VALID,917.447,VALID,0,VALID,99.0911,VALID,-0.0169808,VALID,18.5825,VALID,95,VALID,0.634277,
2001-07-07, 00:18:00,VALID,917.449,VALID,0,VALID,99.1114,VALID,-0.0339617,VALID,18.611,VALID,98,VALID,0.614366,
2001-07-07, 00:19:00,VALID,917.421,VALID,0,VALID,99.1381,VALID,-0.0509425,VALID,18.6565,VALID,114,VALID,0.615668,
2001-07-07, 00:20:00,VALID,917.408,VALID,0,VALID,99.1394,VALID,-0.0509425,VALID,18.6796,VALID,126,VALID,0.65625,
2001-07-07, 00:21:00,VALID,917.378,VALID,0,VALID,99.1394,VALID,-0.0849042,VALID,18.6989,VALID,117,VALID,0.667146,
2001-07-07, 00:22:00,VALID,917.357,VALID,0,VALID,99.1521,VALID,-0.0679233,VALID,18.7213,VALID,116,VALID,0.621205,
2001-07-07, 00:23:00,VALID,917.343,VALID,0,VALID,99.1585,VALID,-0.0679233,VALID,18.7211,VALID,124,VALID,0.682215,
2001-07-07, 00:24:00,VALID,917.313,VALID,0,VALID,99.1826,VALID,-0.0849042,VALID,18.7702,VALID,125,VALID,0.369721,
2001-07-07, 00:25:00,VALID,917.318,VALID,0,VALID,99.1979,VALID,-0.0849042,VALID,18.7924,VALID,131,VALID,0.458404,
2001-07-07, 00:26:00,VALID,917.308,VALID,0,VALID,99.175,VALID,-0.0169808,VALID,18.8117,VALID,129,VALID,0.368652,
2001-07-07, 00:27:00,VALID,917.296,VALID,0,VALID,99.1546,VALID,0,VALID,18.8055,VALID,132,VALID,0.45638,
2001-07-07, 00:28:00,VALID,917.288,VALID,0,VALID,99.1406,VALID,0,VALID,18.7988,VALID,147,VALID,0.343533,
2001-07-07, 00:29:00,VALID,917.259,VALID,0,VALID,99.1457,VALID,-0.0509425,VALID,18.7792,VALID,140,VALID,0.668087,
2001-07-07, 00:30:00,VALID,917.227,VALID,0,VALID,99.147,VALID,-0.0169808,VALID,18.7924,VALID,143,VALID,0.518092,
2001-07-07, 00:31:00,VALID,917.208,VALID,0,VALID,99.1419,VALID,-0.0169808,VALID,18.7924,VALID,143,VALID,0.645089,
2001-07-07, 00:32:00,VALID,917.212,VALID,0,VALID,99.1585,VALID,-0.0169808,VALID,18.7956,VALID,133,VALID,0.511489,
2001-07-07, 00:33:00,VALID,917.213,VALID,0,VALID,99.161,VALID,-0.0339617,VALID,18.8018,VALID,133,VALID,0.569468,
2001-07-07, 00:34:00,VALID,917.225,VALID,0,VALID,99.1674,VALID,-0.0509425,VALID,18.8016,VALID,137,VALID,0.617821,
2001-07-07, 00:35:00,VALID,917.207,VALID,0,VALID,99.1483,VALID,-0.0169808,VALID,18.8117,VALID,141,VALID,0.683594,
2001-07-07, 00:36:00,VALID,917.196,VALID,0,VALID,99.1457,VALID,0,VALID,18.7919,VALID,141,VALID,0.573568,
2001-07-07, 00:37:00,VALID,917.171,VALID,0,VALID,99.1457,VALID,-0.0339617,VALID,18.7688,VALID,139,VALID,0.623915,
2001-07-07, 00:38:00,VALID,917.157,VALID,0,VALID,99.1635,VALID,-0.0339617,VALID,18.7887,VALID,131,VALID,0.520123,
2001-07-07, 00:39:00,VALID,917.133,VALID,0,VALID,99.1483,VALID,-0.0169808,VALID,18.779,VALID,134,VALID,0.544613,
2001-07-07, 00:40:00,VALID,917.117,VALID,0,VALID,99.1661,VALID,-0.0339617,VALID,18.7723,VALID,147,VALID,0.600223,
2001-07-07, 00:41:00,VALID,917.108,VALID,0,VALID,99.1661,VALID,-0.0169808,VALID,18.7723,VALID,143,VALID,0.486903,
2001-07-07, 00:42:00,VALID,917.107,VALID,0,VALID,99.1496,VALID,-0.118866,VALID,18.7638,VALID,129,VALID,0.423564,
2001-07-07, 00:43:00,VALID,917.079,VALID,0,VALID,99.1203,VALID,-0.101885,VALID,18.7419,VALID,140,VALID,0.677576,
2001-07-07, 00:44:00,VALID,917.061,VALID,0,VALID,99.1572,VALID,-0.101885,VALID,18.7384,VALID,138,VALID,0.746338,
2001-07-07, 00:45:00,VALID,917.05,VALID,0,VALID,99.1432,VALID,-0.135847,VALID,18.7352,VALID,136,VALID,0.645616,
2001-07-07, 00:46:00,VALID,917.041,VALID,0,VALID,99.1597,VALID,-0.101885,VALID,18.7255,VALID,125,VALID,0.565755,
2001-07-07, 00:47:00,VALID,917.028,VALID,0,VALID,99.1661,VALID,-0.135847,VALID,18.7389,VALID,120,VALID,0.679214,
2001-07-07, 00:48:00,VALID,917.027,VALID,0,VALID,99.1699,VALID,-0.118866,VALID,18.7391,VALID,114,VALID,0.591488,
2001-07-07, 00:49:00,VALID,917.014,VALID,0,VALID,99.1546,VALID,-0.118866,VALID,18.7093,VALID,95,VALID,0.402232,
2001-07-07, 00:50:00,VALID,916.986,VALID,0,VALID,99.1483,VALID,-0.101885,VALID,18.68,VALID,99,VALID,0.492877,
2001-07-07, 00:51:00,VALID,916.956,VALID,0,VALID,99.1813,VALID,-0.118866,VALID,18.6867,VALID,102,VALID,0.768792,
2001-07-07, 00:52:00,VALID,916.935,VALID,0,VALID,99.1559,VALID,-0.169808,VALID,18.6641,VALID,59,VALID,0.541385,
2001-07-07, 00:53:00,VALID,916.92,VALID,0,VALID,99.1406,VALID,-0.101885,VALID,18.6385,VALID,67,VALID,0.489014,
2001-07-07, 00:54:00,VALID,916.896,VALID,0,VALID,99.1559,VALID,-0.152827,VALID,18.6422,VALID,71,VALID,0.71441,
2001-07-07, 00:55:00,VALID,916.873,VALID,0,VALID,99.1915,VALID,-0.118866,VALID,18.6381,VALID,82,VALID,0.7398,
2001-07-07, 00:56:00,VALID,916.857,VALID,0,VALID,99.1737,VALID,-0.118866,VALID,18.6286,VALID,83,VALID,0.532434,
2001-07-07, 00:57:00,VALID,916.859,VALID,0,VALID,99.2017,VALID,-0.0849042,VALID,18.6413,VALID,91,VALID,0.645559,
2001-07-07, 00:58:00,VALID,916.831,VALID,0,VALID,99.2106,VALID,-0.0339617,VALID,18.6334,VALID,98,VALID,0.758705,
2001-07-07, 00:59:00,VALID,916.804,VALID,0,VALID,99.2119,VALID,-0.0339617,VALID,18.65,VALID,84,VALID,0.693704,
2001-07-07, 01:00:00,VALID,916.791,VALID,0,VALID,99.2119,VALID,-0.0679233,VALID,18.6507,VALID,95,VALID,0.674548,
2001-07-07, 01:01:00,VALID,916.782,VALID,0,VALID,99.2246,VALID,-0.0169808,VALID,18.6634,VALID,90,VALID,0.645059,
2001-07-07, 01:02:00,VALID,916.773,VALID,0,VALID,99.208,VALID,-0.0169808,VALID,18.657,VALID,88,VALID,0.702881,
2001-07-07, 01:03:00,VALID,916.756,VALID,0,VALID,99.1966,VALID,-0.0339617,VALID,18.6371,VALID,84,VALID,0.798394,
2001-07-07, 01:04:00,VALID,916.757,VALID,0,VALID,99.1559,VALID,0,VALID,18.6051,VALID,89,VALID,0.892795,
2001-07-07, 01:05:00,VALID,916.745,VALID,0,VALID,99.1585,VALID,-0.0339617,VALID,18.5854,VALID,104,VALID,0.795928,
2001-07-07, 01:06:00,VALID,916.744,VALID,0,VALID,99.1483,VALID,-0.0169808,VALID,18.5691,VALID,105,VALID,0.629934,
2001-07-07, 01:07:00,VALID,916.73,VALID,0,VALID,99.1445,VALID,-0.0339617,VALID,18.5432,VALID,119,VALID,0.877009,
2001-07-07, 01:08:00,VALID,916.728,VALID,0,VALID,99.1368,VALID,-0.0169808,VALID,18.5139,VALID,111,VALID,0.923254,
2001-07-07, 01:09:00,VALID,916.72,VALID,0,VALID,99.1559,VALID,0,VALID,18.498,VALID,112,VALID,0.8769,
2001-07-07, 01:10:00,VALID,916.716,VALID,0,VALID,99.1674,VALID,0,VALID,18.495,VALID,94,VALID,0.821579,
2001-07-07, 01:11:00,VALID,916.705,VALID,0,VALID,99.1915,VALID,0,VALID,18.4858,VALID,103,VALID,0.753174,
2001-07-07, 01:12:00,VALID,916.694,VALID,0,VALID,99.175,VALID,0,VALID,18.4729,VALID,91,VALID,0.592448,
2001-07-07, 01:13:00,VALID,916.688,VALID,0,VALID,99.1445,VALID,-0.0339617,VALID,18.4272,VALID,102,VALID,0.667318,
2001-07-07, 01:14:00,VALID,916.685,VALID,0,VALID,99.1585,VALID,-0.0339617,VALID,18.4076,VALID,119,VALID,0.620739,
2001-07-07, 01:15:00,VALID,916.67,VALID,0,VALID,99.1496,VALID,-0.0169808,VALID,18.3887,VALID,106,VALID,0.720806,
2001-07-07, 01:16:00,VALID,916.669,VALID,0,VALID,99.161,VALID,-0.0339617,VALID,18.3661,VALID,109,VALID,0.870313,
2001-07-07, 01:17:00,VALID,916.654,VALID,0,VALID,99.1661,VALID,-0.0169808,VALID,18.3527,VALID,120,VALID,0.740349,
2001-07-07, 01:18:00,VALID,916.66,VALID,0,VALID,99.203,VALID,0,VALID,18.3472,VALID,132,VALID,0.767314,
2001-07-07, 01:19:00,VALID,916.66,VALID,0,VALID,99.2258,VALID,-0.0169808,VALID,18.34,VALID,119,VALID,0.707348,
2001-07-07, 01:20:00,VALID,916.652,VALID,0,VALID,99.2513,VALID,-0.0169808,VALID,18.3532,VALID,121,VALID,0.897949,
2001-07-07, 01:21:00,VALID,916.646,VALID,0,VALID,99.2462,VALID,-0.0169808,VALID,18.353,VALID,106,VALID,0.845052,
2001-07-07, 01:22:00,VALID,916.64,VALID,0,VALID,99.25,VALID,0.0169808,VALID,18.3624,VALID,107,VALID,0.816189,
2001-07-07, 01:23:00,VALID,916.638,VALID,0,VALID,99.2665,VALID,-0.0339617,VALID,18.3666,VALID,105,VALID,0.930161,
2001-07-07, 01:24:00,VALID,916.636,VALID,0,VALID,99.2754,VALID,-0.0849042,VALID,18.3596,VALID,106,VALID,0.939967,
2001-07-07, 01:25:00,VALID,916.622,VALID,0,VALID,99.2742,VALID,-0.0339617,VALID,18.3629,VALID,116,VALID,1.02277,
2001-07-07, 01:26:00,VALID,916.608,VALID,0,VALID,99.278,VALID,-0.0509425,VALID,18.3855,VALID,103,VALID,0.986903,
2001-07-07, 01:27:00,VALID,916.613,VALID,0,VALID,99.2704,VALID,0,VALID,18.3855,VALID,100,VALID,0.985008,
2001-07-07, 01:28:00,VALID,916.608,VALID,0,VALID,99.2691,VALID,0.0169808,VALID,18.3721,VALID,108,VALID,1.09565,
2001-07-07, 01:29:00,VALID,916.61,VALID,0,VALID,99.292,VALID,-0.0169808,VALID,18.3827,VALID,111,VALID,1.13647,
2001-07-07, 01:30:00,VALID,916.621,VALID,0,VALID,99.2831,VALID,-0.0169808,VALID,18.3857,VALID,114,VALID,1.00152,
2001-07-07, 01:31:00,VALID,916.639,VALID,0,VALID,99.3034,VALID,0,VALID,18.379,VALID,117,VALID,1.03971,
2001-07-07, 01:32:00,VALID,916.641,VALID,0,VALID,99.3123,VALID,0,VALID,18.3822,VALID,116,VALID,1.00402,
2001-07-07, 01:33:00,VALID,916.644,VALID,0,VALID,99.3034,VALID,-0.0169808,VALID,18.3887,VALID,115,VALID,0.679482,
2001-07-07, 01:34:00,VALID,916.641,VALID,0,VALID,99.3212,VALID,0,VALID,18.3815,VALID,118,VALID,0.724777,
2001-07-07, 01:35:00,VALID,916.624,VALID,0,VALID,99.3136,VALID,0,VALID,18.4048,VALID,111,VALID,0.963235,
2001-07-07, 01:36:00,VALID,916.624,VALID,0,VALID,99.3149,VALID,-0.0169808,VALID,18.3848,VALID,122,VALID,0.75,
2001-07-07, 01:37:00,VALID,916.639,VALID,0,VALID,99.3174,VALID,-0.0169808,VALID,18.3919,VALID,110,VALID,0.771115,
2001-07-07, 01:38:00,VALID,916.633,VALID,0,VALID,99.3187,VALID,0,VALID,18.3954,VALID,143,VALID,0.719971,
2001-07-07, 01:39:00,VALID,916.643,VALID,0,VALID,99.3212,VALID,0,VALID,18.382,VALID,120,VALID,0.646267,
2001-07-07, 01:40:00,VALID,916.634,VALID,0,VALID,99.325,VALID,0,VALID,18.3852,VALID,119,VALID,0.503038,
2001-07-07, 01:41:00,VALID,916.625,VALID,0,VALID,99.3314,VALID,-0.0169808,VALID,18.3982,VALID,124,VALID,0.586411,
2001-07-07, 01:42:00,VALID,916.628,VALID,0,VALID,99.3263,VALID,-0.0169808,VALID,18.3952,VALID,121,VALID,0.755345,
2001-07-07, 01:43:00,VALID,916.639,VALID,0,VALID,99.3276,VALID,0,VALID,18.4016,VALID,112,VALID,0.562946,
2001-07-07, 01:44:00,VALID,916.643,VALID,0,VALID,99.3441,VALID,-0.0339617,VALID,18.3852,VALID,129,VALID,0.384651,
2001-07-07, 01:45:00,VALID,916.641,VALID,0,VALID,99.3454,VALID,-0.0169808,VALID,18.3917,VALID,134,VALID,0.304265,
2001-07-07, 01:46:00,VALID,916.636,VALID,0,VALID,99.3403,VALID,-0.0339617,VALID,18.3954,VALID,137,VALID,0.66174,
2001-07-07, 01:47:00,VALID,916.631,VALID,0,VALID,99.3352,VALID,-0.0169808,VALID,18.3848,VALID,139,VALID,0.590332,
2001-07-07, 01:48:00,VALID,916.622,VALID,0,VALID,99.3288,VALID,-0.0339617,VALID,18.3822,VALID,136,VALID,0.475911,
2001-07-07, 01:49:00,VALID,916.626,VALID,0,VALID,99.3365,VALID,-0.0509425,VALID,18.3822,VALID,115,VALID,0.556858,
2001-07-07, 01:50:00,VALID,916.631,VALID,0,VALID,99.3238,VALID,-0.0339617,VALID,18.3822,VALID,105,VALID,0.777699,
2001-07-07, 01:51:00,VALID,916.636,VALID,0,VALID,99.3314,VALID,-0.0679233,VALID,18.3594,VALID,113,VALID,0.804276,
2001-07-07, 01:52:00,VALID,916.639,VALID,0,VALID,99.3377,VALID,-0.0509425,VALID,18.3559,VALID,112,VALID,0.879687,
2001-07-07, 01:53:00,VALID,916.642,VALID,0,VALID,99.3403,VALID,-0.0509425,VALID,18.3564,VALID,104,VALID,0.819393,
2001-07-07, 01:54:00,VALID,916.655,VALID,0,VALID,99.3517,VALID,0,VALID,18.3564,VALID,121,VALID,0.859375,
2001-07-07, 01:55:00,VALID,916.651,VALID,0,VALID,99.3492,VALID,-0.0339617,VALID,18.3728,VALID,107,VALID,0.623522,
2001-07-07, 01:56:00,VALID,916.644,VALID,0,VALID,99.3301,VALID,-0.0339617,VALID,18.347,VALID,97,VALID,0.538086,
2001-07-07, 01:57:00,VALID,916.647,VALID,0,VALID,99.3416,VALID,0,VALID,18.3239,VALID,95,VALID,0.721571,
2001-07-07, 01:58:00,VALID,916.642,VALID,0,VALID,99.3619,VALID,-0.0169808,VALID,18.3207,VALID,94,VALID,0.876519,
2001-07-07, 01:59:00,VALID,916.624,VALID,0,VALID,99.3759,VALID,-0.0509425,VALID,18.3472,VALID,82,VALID,0.662169,
2001-07-07, 02:00:00,VALID,916.622,VALID,0,VALID,99.3657,VALID,-0.0339617,VALID,18.3278,VALID,100,VALID,0.706209,
2001-07-07, 02:01:00,VALID,916.629,VALID,0,VALID,99.3644,VALID,-0.0509425,VALID,18.3246,VALID,102,VALID,0.657366,
2001-07-07, 02:02:00,VALID,916.604,VALID,0,VALID,99.381,VALID,-0.0679233,VALID,18.3274,VALID,105,VALID,0.613511,
2001-07-07, 02:03:00,VALID,916.606,VALID,0,VALID,99.3695,VALID,-0.0509425,VALID,18.3373,VALID,99,VALID,0.806377,
2001-07-07, 02:04:00,VALID,916.592,VALID,0,VALID,99.3632,VALID,-0.0849042,VALID,18.3209,VALID,108,VALID,0.826225,
2001-07-07, 02:05:00,VALID,916.592,VALID,0,VALID,99.3505,VALID,-0.0339617,VALID,18.3114,VALID,122,VALID,0.510986,
2001-07-07, 02:06:00,VALID,916.58,VALID,0,VALID,99.3581,VALID,-0.0509425,VALID,18.2985,VALID,117,VALID,0.539497,
2001-07-07, 02:07:00,VALID,916.572,VALID,0,VALID,99.3594,VALID,-0.0169808,VALID,18.2946,VALID,99,VALID,0.613498,
2001-07-07, 02:08:00,VALID,916.56,VALID,0,VALID,99.3505,VALID,-0.0339617,VALID,18.2757,VALID,97,VALID,0.810369,
2001-07-07, 02:09:00,VALID,916.551,VALID,0,VALID,99.339,VALID,-0.0679233,VALID,18.2695,VALID,105,VALID,0.929071,
2001-07-07, 02:10:00,VALID,916.526,VALID,0,VALID,99.3225,VALID,-0.0849042,VALID,18.2404,VALID,108,VALID,0.734598,
2001-07-07, 02:11:00,VALID,916.538,VALID,0,VALID,99.3339,VALID,-0.0339617,VALID,18.2406,VALID,96,VALID,0.807215,
2001-07-07, 02:12:00,VALID,916.529,VALID,0,VALID,99.3174,VALID,-0.0509425,VALID,18.2275,VALID,94,VALID,0.433699,
2001-07-07, 02:13:00,VALID,916.516,VALID,0,VALID,99.2971,VALID,-0.0679233,VALID,18.1987,VALID,95,VALID,0.564189,
2001-07-07, 02:14:00,VALID,916.516,VALID,0,VALID,99.3009,VALID,-0.0509425,VALID,18.1855,VALID,115,VALID,0.568359,
2001-07-07, 02:15:00,VALID,916.519,VALID,0,VALID,99.2983,VALID,-0.0509425,VALID,18.176,VALID,117,VALID,0.628906,
2001-07-07, 02:16:00,VALID,916.517,VALID,0,VALID,99.2996,VALID,-0.0509425,VALID,18.1696,VALID,110,VALID,0.621311,
2001-07-07, 02:17:00,VALID,916.507,VALID,0,VALID,99.2958,VALID,-0.0169808,VALID,18.1661,VALID,101,VALID,0.631392,
2001-07-07, 02:18:00,VALID,916.5,VALID,0,VALID,99.3276,VALID,-0.0509425,VALID,18.1666,VALID,107,VALID,0.974918,
2001-07-07, 02:19:00,VALID,916.508,VALID,0,VALID,99.3174,VALID,-0.0169808,VALID,18.1728,VALID,109,VALID,0.973884,
2001-07-07, 02:20:00,VALID,916.51,VALID,0,VALID,99.3072,VALID,-0.0509425,VALID,18.1597,VALID,106,VALID,0.87454,
2001-07-07, 02:21:00,VALID,916.502,VALID,0,VALID,99.3314,VALID,-0.0169808,VALID,18.1537,VALID,120,VALID,0.931799,
2001-07-07, 02:22:00,VALID,916.5,VALID,0,VALID,99.3327,VALID,-0.0849042,VALID,18.1468,VALID,128,VALID,0.654983,
2001-07-07, 02:23:00,VALID,916.498,VALID,0,VALID,99.3377,VALID,-0.0339617,VALID,18.1368,VALID,141,VALID,0.672363,
2001-07-07, 02:24:00,VALID,916.474,VALID,0,VALID,99.3505,VALID,-0.0339617,VALID,18.15,VALID,136,VALID,0.697917,
2001-07-07, 02:25:00,VALID,916.466,VALID,0,VALID,99.3606,VALID,-0.0849042,VALID,18.1468,VALID,148,VALID,0.692491,
2001-07-07, 02:26:00,VALID,916.452,VALID,0,VALID,99.3556,VALID,-0.0169808,VALID,18.1567,VALID,135,VALID,0.821496,
2001-07-07, 02:27:00,VALID,916.439,VALID,0,VALID,99.3632,VALID,-0.0509425,VALID,18.1532,VALID,132,VALID,0.884663,
2001-07-07, 02:28:00,VALID,916.408,VALID,0,VALID,99.353,VALID,-0.0169808,VALID,18.1336,VALID,114,VALID,0.671205,
2001-07-07, 02:29:00,VALID,916.421,VALID,0,VALID,99.3466,VALID,-0.0509425,VALID,18.1405,VALID,120,VALID,0.866039,
2001-07-07, 02:30:00,VALID,916.413,VALID,0,VALID,99.3556,VALID,-0.0509425,VALID,18.1438,VALID,126,VALID,0.944046,
2001-07-07, 02:31:00,VALID,916.4,VALID,0,VALID,99.3594,VALID,-0.0849042,VALID,18.1438,VALID,122,VALID,0.757813,
2001-07-07, 02:32:00,VALID,916.376,VALID,0,VALID,99.3556,VALID,-0.0509425,VALID,18.15,VALID,120,VALID,0.745605,
2001-07-07, 02:33:00,VALID,916.364,VALID,0,VALID,99.3772,VALID,-0.0339617,VALID,18.1564,VALID,142,VALID,0.852648,
2001-07-07, 02:34:00,VALID,916.359,VALID,0,VALID,99.3734,VALID,-0.0849042,VALID,18.1694,VALID,140,VALID,0.755642,
2001-07-07, 02:35:00,VALID,916.363,VALID,0,VALID,99.3759,VALID,-0.0509425,VALID,18.1887,VALID,139,VALID,0.990057,
2001-07-07, 02:36:00,VALID,916.365,VALID,0,VALID,99.3721,VALID,-0.0339617,VALID,18.2083,VALID,124,VALID,0.994449,
2001-07-07, 02:37:00,VALID,916.358,VALID,0,VALID,99.3721,VALID,-0.0509425,VALID,18.2118,VALID,132,VALID,0.871429,
2001-07-07, 02:38:00,VALID,916.346,VALID,0,VALID,99.3517,VALID,-0.0509425,VALID,18.2049,VALID,129,VALID,0.825138,
2001-07-07, 02:39:00,VALID,916.331,VALID,0,VALID,99.3517,VALID,0,VALID,18.1887,VALID,114,VALID,0.595439,
2001-07-07, 02:40:00,VALID,916.329,VALID,0,VALID,99.3479,VALID,-0.0509425,VALID,18.179,VALID,117,VALID,0.831503,
2001-07-07, 02:41:00,VALID,916.312,VALID,0,VALID,99.3594,VALID,-0.0169808,VALID,18.2056,VALID,121,VALID,0.935059,
2001-07-07, 02:42:00,VALID,916.325,VALID,0,VALID,99.3556,VALID,-0.0169808,VALID,18.1945,VALID,127,VALID,0.876085,
2001-07-07, 02:43:00,VALID,916.32,VALID,0,VALID,99.353,VALID,0.0339617,VALID,18.2146,VALID,103,VALID,0.6875,
2001-07-07, 02:44:00,VALID,916.316,VALID,0,VALID,99.3377,VALID,0.0169808,VALID,18.1943,VALID,97,VALID,0.855824,
2001-07-07, 02:45:00,VALID,916.303,VALID,0,VALID,99.325,VALID,0,VALID,18.1682,VALID,109,VALID,1.0736,
2001-07-07, 02:46:00,VALID,916.282,VALID,0,VALID,99.3136,VALID,0.0169808,VALID,18.1657,VALID,108,VALID,0.907366,
2001-07-07, 02:47:00,VALID,916.283,VALID,0,VALID,99.2996,VALID,0.0339617,VALID,18.1528,VALID,118,VALID,1.0494,
2001-07-07, 02:48:00,VALID,916.286,VALID,0,VALID,99.3021,VALID,0,VALID,18.1368,VALID,123,VALID,0.813978,
2001-07-07, 02:49:00,VALID,916.295,VALID,0,VALID,99.3021,VALID,0,VALID,18.1334,VALID,134,VALID,0.690456,
2001-07-07, 02:50:00,VALID,916.309,VALID,0,VALID,99.2856,VALID,0.0169808,VALID,18.1207,VALID,134,VALID,0.465088,
2001-07-07, 02:51:00,VALID,916.306,VALID,0,VALID,99.2831,VALID,0.0169808,VALID,18.0946,VALID,132,VALID,0.549479,
2001-07-07, 02:52:00,VALID,916.294,VALID,0,VALID,99.2983,VALID,0.0169808,VALID,18.0882,VALID,136,VALID,0.781033,
2001-07-07, 02:53:00,VALID,916.296,VALID,0,VALID,99.3149,VALID,0,VALID,18.1013,VALID,122,VALID,0.426136,
2001-07-07, 02:54:00,VALID,916.289,VALID,0,VALID,99.3187,VALID,0,VALID,18.1043,VALID,129,VALID,0.128701,
2001-07-07, 02:55:00,VALID,916.289,VALID,0,VALID,99.2996,VALID,0.0169808,VALID,18.0847,VALID,119,VALID,0.177455,
2001-07-07, 02:56:00,VALID,916.307,VALID,0,VALID,99.2856,VALID,0.0339617,VALID,18.0723,VALID,116,VALID,0.622702,
2001-07-07, 02:57:00,VALID,916.295,VALID,0,VALID,99.2678,VALID,0,VALID,18.0492,VALID,119,VALID,0.781039,
2001-07-07, 02:58:00,VALID,916.266,VALID,0,VALID,99.2793,VALID,0.0169808,VALID,18.037,VALID,119,VALID,0.77027,
2001-07-07, 02:59:00,VALID,916.252,VALID,0,VALID,99.2754,VALID,0.0169808,VALID,18.0238,VALID,125,VALID,0.872559,
2001-07-07, 03:00:00,VALID,916.245,VALID,0,VALID,99.2945,VALID,0.0509425,VALID,18.0298,VALID,118,VALID,0.713325,
2001-07-07, 03:01:00,VALID,916.267,VALID,0,VALID,99.2983,VALID,0.0169808,VALID,18.0467,VALID,134,VALID,0.792535,
2001-07-07, 03:02:00,VALID,916.266,VALID,0,VALID,99.3009,VALID,0.0339617,VALID,18.049,VALID,130,VALID,0.728456,
2001-07-07, 03:03:00,VALID,916.266,VALID,0,VALID,99.3009,VALID,0.0169808,VALID,18.0559,VALID,117,VALID,0.616571,
2001-07-07, 03:04:00,VALID,916.264,VALID,0,VALID,99.2843,VALID,0,VALID,18.0628,VALID,130,VALID,0.813616,
2001-07-07, 03:05:00,VALID,916.257,VALID,0,VALID,99.2818,VALID,0,VALID,18.0559,VALID,125,VALID,0.597886,
2001-07-07, 03:06:00,VALID,916.238,VALID,0,VALID,99.2551,VALID,0.0339617,VALID,18.0561,VALID,121,VALID,0.51098,
2001-07-07, 03:07:00,VALID,916.247,VALID,0,VALID,99.2525,VALID,0.0169808,VALID,18.0564,VALID,128,VALID,0.825169,
2001-07-07, 03:08:00,VALID,916.234,VALID,0,VALID,99.2449,VALID,0.0509425,VALID,18.0497,VALID,117,VALID,0.838379,
2001-07-07, 03:09:00,VALID,916.227,VALID,0,VALID,99.2322,VALID,0.0169808,VALID,18.043,VALID,114,VALID,0.75434,
2001-07-07, 03:10:00,VALID,916.231,VALID,0,VALID,99.2144,VALID,0,VALID,18.0398,VALID,121,VALID,0.718316,
2001-07-07, 03:11:00,VALID,916.229,VALID,0,VALID,99.2233,VALID,0.0169808,VALID,18.0564,VALID,136,VALID,0.91785,
2001-07-07, 03:12:00,VALID,916.219,VALID,0,VALID,99.1991,VALID,0.0169808,VALID,18.0596,VALID,134,VALID,0.87315,
2001-07-07, 03:13:00,VALID,916.253,VALID,0,VALID,99.1852,VALID,0,VALID,18.0559,VALID,128,VALID,0.681696,
2001-07-07, 03:14:00,VALID,916.271,VALID,0,VALID,99.1648,VALID,0,VALID,18.0663,VALID,121,VALID,0.566636,
2001-07-07, 03:15:00,VALID,916.283,VALID,0,VALID,99.1496,VALID,0.0339617,VALID,18.049,VALID,123,VALID,0.655405,
2001-07-07, 03:16:00,VALID,916.293,VALID,0,VALID,99.1496,VALID,0,VALID,18.0626,VALID,111,VALID,0.524704,
2001-07-07, 03:17:00,VALID,916.286,VALID,0,VALID,99.086,VALID,0,VALID,18.0499,VALID,56,VALID,0.316895,
2001-07-07, 03:18:00,VALID,916.27,VALID,0,VALID,99.0275,VALID,-0.0169808,VALID,18.0072,VALID,111,VALID,0.474826,
2001-07-07, 03:19:00,VALID,916.276,VALID,0,VALID,98.9804,VALID,0.0169808,VALID,17.9687,VALID,122,VALID,0.393012,
2001-07-07, 03:20:00,VALID,916.287,VALID,0,VALID,98.9728,VALID,0.0169808,VALID,17.9433,VALID,112,VALID,0.355114,
2001-07-07, 03:21:00,VALID,916.305,VALID,0,VALID,98.9575,VALID,0.0169808,VALID,17.9337,VALID,106,VALID,0.496299,
2001-07-07, 03:22:00,VALID,916.313,VALID,0,VALID,98.997,VALID,0,VALID,17.9274,VALID,122,VALID,0.602009,
2001-07-07, 03:23:00,VALID,916.324,VALID,0,VALID,99.0173,VALID,0,VALID,17.9332,VALID,116,VALID,0.704044,
2001-07-07, 03:24:00,VALID,916.331,VALID,0,VALID,98.9715,VALID,0,VALID,17.9237,VALID,119,VALID,0.655617,
2001-07-07, 03:25:00,VALID,916.342,VALID,0,VALID,98.9512,VALID,0.0169808,VALID,17.8949,VALID,119,VALID,0.768792,
2001-07-07, 03:26:00,VALID,916.335,VALID,0,VALID,98.9792,VALID,0.0169808,VALID,17.8917,VALID,110,VALID,0.812256,
2001-07-07, 03:27:00,VALID,916.331,VALID,0,VALID,98.9842,VALID,-0.0339617,VALID,17.8891,VALID,105,VALID,0.864149,
2001-07-07, 03:28:00,VALID,916.319,VALID,0,VALID,98.9753,VALID,-0.0849042,VALID,17.8801,VALID,106,VALID,1.14431,
2001-07-07, 03:29:00,VALID,916.314,VALID,0,VALID,98.9881,VALID,-0.0509425,VALID,17.9124,VALID,110,VALID,1.0741,
2001-07-07, 03:30:00,VALID,916.298,VALID,0,VALID,98.9181,VALID,-0.0679233,VALID,17.8956,VALID,110,VALID,0.904811,
2001-07-07, 03:31:00,VALID,916.315,VALID,0,VALID,98.8762,VALID,-0.0509425,VALID,17.9083,VALID,124,VALID,0.526116,